Weather observations for the past three days for
Liberal, Liberal Municipal Airport
Metric (Imperial)
Date Time (cdt) Wind (kph) Vis. (km) Weather Sky Cond. Temperature (ºC) Relative Humidity Wind Chill (°C) Heat Index (°C) Pressure Precipitation (cm)
Air Dwpt 6 hour altimeter (cm) sea level (mb) 1 hr 3 hr 6 hr
Max. Min.
04 04:56 S 9 16.09 Fair CLR 22.2 17.2 73% 76.05 1009.6
04 03:56 S 13 16.09 Fair CLR 22.2 17.2 73% 76.02 1009.5
04 02:56 S 13 16.09 Fair CLR 23.9 17.2 66% 25 76.02 1009.5
04 01:56 S 17 16.09 Fair CLR 24.4 16.1 60% 26 76.02 1009.4
04 00:56 S 15 16.09 Fair CLR 22.8 15 36.7 22.8 62% 76 1009.4
03 23:56 S 20 16.09 Fair CLR 25.6 15 52% 26 75.97 1009.1
03 22:56 S 13 16.09 Fair CLR 25.6 15.6 54% 26 75.97 1008.9
03 21:56 S 15 16.09 Fair CLR 27.8 15 46% 28 75.95 1008.7
03 20:56 S 20 16.09 Fair CLR 30 15 40% 30 75.9 1007.9
03 19:56 S 30 G 44 16.09 Fair CLR 33.3 15 33% 33 75.82 1007.1
03 18:56 SE 19 16.09 Fair CLR 37.2 10.6 37.8 32.8 20% 36 75.82 1006.5
03 17:56 SE 11 16.09 Fair CLR 37.8 12.8 22% 37 75.82 1006.5
03 16:56 SE 19 16.09 Fair CLR 37.8 13.3 23% 37 75.84 1006.7
03 15:56 SE 9 16.09 Fair CLR 37.2 9.4 18% 35 75.9 1007.4
03 14:56 S 9 16.09 Fair CLR 36.1 12.2 24% 35 75.97 1008.4
03 13:56 SE 13 16.09 Fair CLR 33.3 16.1 36% 33 76 1009.2
03 12:56 S 11 16.09 Fair CLR 32.8 16.1 32.8 21.7 37% 33 76.07 1010.1
03 11:56 S 17 16.09 Fair CLR 30 16.1 43% 30 76.1 1010.8
03 10:56 S 20 16.09 Fair CLR 30 16.1 43% 30 76.07 1010.4
03 09:56 SW 28 16.09 Fair CLR 27.8 16.1 49% 28 76.07 1010.6
03 08:56 SW 20 16.09 Fair CLR 25.6 17.2 60% 27 76.07 1010.5
03 07:56 S 17 16.09 Fair CLR 22.2 16.7 71% 76.05 1010.1
03 06:56 S 17 16.09 Fair CLR 22.2 16.1 26.1 22.2 68% 76.02 1009.6
03 05:56 S 20 16.09 Fair CLR 23.3 16.1 64% 76.05 1009.8
03 04:56 S 24 16.09 Fair CLR 25 16.1 58% 26 76.05 1009.4
03 03:56 S 28 16.09 Fair CLR 25.6 16.1 56% 26 76.05 1009.7
03 02:56 S 28 16.09 Fair CLR 26.1 15.6 52% 27 76.05 1009.5
03 01:56 S 22 16.09 Fair CLR 25.6 14.4 50% 26 76.05 1009.7
03 00:56 S 20 16.09 Fair CLR 25 15.6 34.4 22.8 56% 26 76.05 1009.9
02 23:56 S 17 16.09 Fair CLR 23.3 16.1 64% 76.05 1010.0
02 22:56 SE 15 16.09 Fair CLR 25 16.1 58% 26 76.05 1010.1
02 21:56 SE 11 16.09 Fair CLR 25 16.1 58% 26 76.02 1009.9
02 20:56 S 15 16.09 Fair CLR 26.7 15.6 51% 27 75.97 1009.5
02 19:56 S 19 16.09 Fair CLR 31.1 16.7 42% 31 75.95 1009.0
02 18:56 S 24 16.09 Partly Cloudy FEW060 SCT100 34.4 17.2 36.7 33.9 36% 35 75.95 1008.6
02 17:56 S 19 16.09 Partly Cloudy SCT110 34.4 16.1 33% 35 75.95 1008.6
02 16:56 S 30 G 37 16.09 Fair CLR 36.7 16.7 31% 37 75.97 1008.7
02 15:56 S 22 G 39 16.09 Fair CLR 36.1 16.7 32% 37 76.02 1009.4
02 14:56 S 26 G 41 16.09 A Few Clouds FEW090 35.6 16.1 31% 36 76.07 1010.2
02 13:56 SW 26 G 35 16.09 Fair CLR 36.1 16.7 32% 37 76.12 1010.9
02 12:56 S 24 16.09 Fair CLR 33.9 16.7 33.9 21.1 36% 34 76.23 1012.2
02 11:56 S 26 16.09 Mostly Cloudy BKN110 31.7 16.1 39% 32 76.28 1012.8
02 10:56 SW 22 16.09 Fair CLR 30.6 16.1 42% 31 76.28 1013.0
02 09:56 S 22 16.09 Fair CLR 26.7 14.4 47% 27 76.28 1013.4
02 08:56 S 19 16.09 Fair CLR 22.8 13.9 57% 76.28 1013.7
02 07:56 S 17 16.09 Fair CLR 21.7 13.9 61% 76.28 1013.3
02 06:56 S 19 16.09 Fair CLR 21.7 13.9 25.6 20.6 61% 76.25 1012.8
02 05:56 S 17 16.09 Fair CLR 21.1 13.9 64% 76.25 1012.6
02 04:56 S 15 16.09 Fair CLR 21.1 14.4 66% 76.25 1012.6
02 03:56 S 13 16.09 Fair CLR 21.1 14.4 66% 76.25 1012.7
02 02:56 S 17 16.09 Fair CLR 22.8 15 62% 76.25 1012.5
02 01:56 S 13 16.09 Fair CLR 23.9 15 58% 25 76.23 1012.5
02 00:56 S 15 16.09 Fair CLR 25.6 15.6 33.3 25 54% 26 76.25 1012.5
01 23:56 S 17 16.09 Fair CLR 27.2 15.6 49% 28 76.25 1012.6
01 22:56 SW 15 16.09 Fair CLR 27.8 15.6 47% 28 76.25 1012.7
01 21:56 S 17 16.09 Fair CLR 26.1 15.6 52% 27 76.2 1012.3
01 20:56 S 15 16.09 Fair CLR 27.2 15.6 49% 28 76.15 1011.7
01 19:56 S 15 16.09 Fair CLR 30 15 40% 30 76.12 1011.4
01 18:56 S 22 16.09 Fair CLR 33.3 14.4 36.1 33.3 32% 33 76.1 1011.0
01 17:56 S 24 16.09 Fair CLR 35 15 30% 35 76.1 1010.9
01 16:56 S 22 16.09 Fair CLR 36.1 15 28% 36 76.12 1010.9
01 15:56 S 20 16.09 Fair CLR 36.1 14.4 27% 36 76.15 1011.4
01 14:56 S 24 G 31 16.09 A Few Clouds FEW100 35 16.1 32% 35 76.25 1012.5
01 13:56 S 13 16.09 Partly Cloudy SCT085 33.9 15 32% 34 76.3 1013.3
01 12:56 S 15 16.09 Fair CLR 33.3 17.2 33.3 18.3 38% 34 76.38 1014.3
01 11:56 SW 15 16.09 Fair CLR 31.1 16.1 40% 31 76.4 1014.9
01 10:56 SW 20 16.09 Fair CLR 29.4 16.1 45% 30 76.43 1015.1
01 09:56 S 11 16.09 Fair CLR 26.7 15 49% 27 76.43 1015.2
01 08:56 S 13 16.09 Fair CLR 24.4 16.7 62% 25 76.43 1015.5
01 07:56 S 13 16.09 Fair CLR 19.4 16.1 81% 76.4 1015.2
01 06:56 S 6 16.09 A Few Clouds FEW100 19.4 16.1 23.3 18.9 81% 76.38 1014.4
01 05:56 NW 6 16.09 Overcast OVC100 19.4 16.1 81% 76.38 1014.5
Date Time (cdt) Wind (kph) Vis. (km) Weather Sky Cond. Air Dwpt Max. Min. Relative Humidity Wind Chill (°C) Heat Index (°C) altimeter (cm) sea level (mb) 1 hr 3 hr 6 hr
6 hour
Temperature (ºC) Pressure Precipitation (cm)